Time,TemperatureF,DewpointF,PressureIn,WindDirection,WindDirectionDegrees,WindSpeedMPH,WindSpeedGustMPH,Humidity,HourlyPrecipIn,Conditions,Clouds,dailyrainin,SoftwareType,DateUTC
2013-01-07 00:02:00,18.4,15.2,30.36,WSW,247,0.0,0.0,87,0.00,RA,,0.00,WeatherDisplay:10.37,2013-01-07 06:02:00,
2013-01-07 00:07:00,18.4,15.2,30.36,WSW,247,0.0,0.0,87,0.00,RA,,0.00,WeatherDisplay:10.37,2013-01-07 06:07:00,
2013-01-07 00:12:00,18.3,15.1,30.36,WSW,247,0.0,0.0,87,0.00,CLR,,0.00,WeatherDisplay:10.37,2013-01-07 06:12:00,
2013-01-07 00:17:00,18.1,14.9,30.36,WSW,247,0.0,0.0,87,0.00,CLR,,0.00,WeatherDisplay:10.37,2013-01-07 06:17:00,
2013-01-07 00:22:00,18.0,14.8,30.36,WSW,247,0.0,0.0,87,0.00,CLR,,0.00,WeatherDisplay:10.37,2013-01-07 06:22:00,
2013-01-07 00:27:00,17.8,14.6,30.36,WSW,247,0.0,0.0,87,0.00,CLR,,0.00,WeatherDisplay:10.37,2013-01-07 06:27:00,
2013-01-07 00:32:00,17.8,14.6,30.36,WSW,248,0.0,0.0,87,0.00,CLR,,0.00,WeatherDisplay:10.37,2013-01-07 06:32:00,
2013-01-07 00:37:00,17.8,14.6,30.36,WSW,248,0.0,0.0,87,0.00,CLR,,0.00,WeatherDisplay:10.37,2013-01-07 06:37:00,
2013-01-07 00:42:00,17.8,14.6,30.36,WSW,248,0.0,0.0,87,0.00,CLR,,0.00,WeatherDisplay:10.37,2013-01-07 06:42:00,
2013-01-07 00:47:00,17.7,14.5,30.36,WSW,247,0.0,0.0,87,0.00,CLR,,0.00,WeatherDisplay:10.37,2013-01-07 06:47:00,
2013-01-07 00:52:00,17.7,14.5,30.36,WSW,247,0.0,0.0,87,0.00,CLR,,0.00,WeatherDisplay:10.37,2013-01-07 06:52:00,
2013-01-07 00:57:00,17.7,14.5,30.37,WSW,247,0.0,0.0,87,0.00,CLR,,0.00,WeatherDisplay:10.37,2013-01-07 06:57:00,
2013-01-07 01:02:00,17.7,14.5,30.37,WSW,247,0.0,0.0,87,0.00,CLR,,0.00,WeatherDisplay:10.37,2013-01-07 07:02:00,
2013-01-07 01:07:00,17.5,14.3,30.37,WSW,247,0.0,0.0,87,0.00,CLR,,0.00,WeatherDisplay:10.37,2013-01-07 07:07:00,
2013-01-07 01:12:00,17.3,14.1,30.37,WSW,247,0.0,0.0,87,0.00,CLR,,0.00,WeatherDisplay:10.37,2013-01-07 07:12:00,
2013-01-07 01:17:00,17.2,14.0,30.38,WSW,247,0.0,0.0,87,0.00,CLR,,0.00,WeatherDisplay:10.37,2013-01-07 07:17:00,
2013-01-07 01:22:00,17.3,14.1,30.38,WSW,247,0.0,0.0,87,0.00,CLR,,0.00,WeatherDisplay:10.37,2013-01-07 07:22:00,
2013-01-07 01:27:00,17.3,14.1,30.38,WSW,247,0.0,0.0,87,0.00,CLR,,0.00,WeatherDisplay:10.37,2013-01-07 07:27:00,
2013-01-07 01:32:00,17.3,14.1,30.39,WSW,247,0.0,0.0,87,0.00,CLR,,0.00,WeatherDisplay:10.37,2013-01-07 07:32:00,
2013-01-07 01:37:00,17.3,14.1,30.38,WSW,247,0.0,0.0,87,0.00,CLR,,0.00,WeatherDisplay:10.37,2013-01-07 07:37:00,
2013-01-07 01:42:00,17.3,14.1,30.38,WSW,248,0.0,0.0,87,0.00,CLR,,0.00,WeatherDisplay:10.37,2013-01-07 07:42:00,
2013-01-07 01:47:00,17.3,14.1,30.38,WSW,247,0.0,0.0,87,0.00,CLR,,0.00,WeatherDisplay:10.37,2013-01-07 07:47:00,
2013-01-07 01:52:00,17.5,14.3,30.38,WSW,247,0.0,0.0,87,0.00,CLR,,0.00,WeatherDisplay:10.37,2013-01-07 07:52:00,
2013-01-07 01:57:00,17.5,14.3,30.38,WSW,247,0.0,0.0,87,0.00,CLR,,0.00,WeatherDisplay:10.37,2013-01-07 07:57:00,
2013-01-07 02:02:00,17.7,14.5,30.38,WSW,248,0.0,0.0,87,0.00,CLR,,0.00,WeatherDisplay:10.37,2013-01-07 08:02:00,
2013-01-07 02:07:00,17.5,14.3,30.38,WSW,247,0.0,0.0,87,0.00,CLR,,0.00,WeatherDisplay:10.37,2013-01-07 08:07:00,
2013-01-07 02:12:00,17.5,14.3,30.38,WSW,247,0.0,0.0,87,0.00,CLR,,0.00,WeatherDisplay:10.37,2013-01-07 08:12:00,
2013-01-07 02:17:00,17.5,14.3,30.37,WSW,247,0.0,1.1,87,0.00,CLR,,0.00,WeatherDisplay:10.37,2013-01-07 08:17:00,
2013-01-07 02:22:00,17.7,14.5,30.38,WSW,247,0.0,0.0,87,0.00,CLR,,0.00,WeatherDisplay:10.37,2013-01-07 08:22:00,
2013-01-07 02:27:00,17.7,14.5,30.38,WSW,248,0.0,0.0,87,0.00,CLR,,0.00,WeatherDisplay:10.37,2013-01-07 08:27:00,
2013-01-07 02:32:00,17.8,14.6,30.37,WSW,247,0.0,0.0,87,0.00,CLR,,0.00,WeatherDisplay:10.37,2013-01-07 08:32:00,
2013-01-07 02:37:00,17.8,14.6,30.37,WSW,247,0.0,0.0,87,0.00,CLR,,0.00,WeatherDisplay:10.37,2013-01-07 08:37:00,
2013-01-07 02:42:00,17.7,14.5,30.38,WSW,247,0.0,0.0,87,0.00,CLR,,0.00,WeatherDisplay:10.37,2013-01-07 08:42:00,
2013-01-07 02:47:00,17.5,14.3,30.37,WSW,247,0.0,0.0,87,0.00,CLR,,0.00,WeatherDisplay:10.37,2013-01-07 08:47:00,
2013-01-07 02:52:00,17.3,14.1,30.38,WSW,247,0.0,0.0,87,0.00,CLR,,0.00,WeatherDisplay:10.37,2013-01-07 08:52:00,
2013-01-07 02:57:00,17.2,14.0,30.38,WSW,247,0.0,0.0,87,0.00,CLR,,0.00,WeatherDisplay:10.37,2013-01-07 08:57:00,
2013-01-07 03:02:00,17.0,13.8,30.38,WSW,247,0.0,0.0,87,0.00,CLR,,0.00,WeatherDisplay:10.37,2013-01-07 09:02:00,
2013-01-07 03:07:00,17.0,13.8,30.38,WSW,247,0.0,0.0,87,0.00,CLR,,0.00,WeatherDisplay:10.37,2013-01-07 09:07:00,
2013-01-07 03:12:00,16.9,13.7,30.38,WSW,247,0.0,0.0,87,0.00,CLR,,0.00,WeatherDisplay:10.37,2013-01-07 09:12:00,
2013-01-07 03:17:00,16.7,13.5,30.39,WSW,247,0.0,0.0,87,0.00,CLR,,0.00,WeatherDisplay:10.37,2013-01-07 09:17:00,
2013-01-07 03:22:00,16.7,13.5,30.39,WSW,247,0.0,0.0,87,0.00,CLR,,0.00,WeatherDisplay:10.37,2013-01-07 09:22:00,
2013-01-07 03:27:00,16.5,13.3,30.39,WSW,247,0.0,0.0,87,0.00,CLR,,0.00,WeatherDisplay:10.37,2013-01-07 09:27:00,
2013-01-07 03:32:00,16.5,13.3,30.39,WSW,247,0.0,0.0,87,0.00,CLR,,0.00,WeatherDisplay:10.37,2013-01-07 09:32:00,
2013-01-07 03:37:00,16.5,13.3,30.39,WSW,247,0.0,0.0,87,0.00,CLR,,0.00,WeatherDisplay:10.37,2013-01-07 09:37:00,
2013-01-07 03:42:00,16.5,13.3,30.39,WSW,247,0.0,0.0,87,0.00,CLR,,0.00,WeatherDisplay:10.37,2013-01-07 09:42:00,
2013-01-07 03:47:00,16.4,13.2,30.39,WSW,247,0.0,0.0,87,0.00,CLR,,0.00,WeatherDisplay:10.37,2013-01-07 09:47:00,
2013-01-07 03:52:00,16.4,13.2,30.39,WSW,247,0.0,0.0,87,0.00,CLR,,0.00,WeatherDisplay:10.37,2013-01-07 09:52:00,
2013-01-07 03:57:00,16.4,13.2,30.39,WSW,247,0.0,0.0,87,0.00,CLR,,0.00,WeatherDisplay:10.37,2013-01-07 09:57:00,
2013-01-07 04:02:00,16.4,13.2,30.39,WSW,247,0.0,0.0,87,0.00,CLR,,0.00,WeatherDisplay:10.37,2013-01-07 10:02:00,
2013-01-07 04:07:00,16.5,13.3,30.39,WSW,247,0.0,0.0,87,0.00,CLR,,0.00,WeatherDisplay:10.37,2013-01-07 10:07:00,
2013-01-07 04:12:00,16.5,13.3,30.39,WSW,247,0.0,0.0,87,0.00,CLR,,0.00,WeatherDisplay:10.37,2013-01-07 10:12:00,
2013-01-07 04:17:00,16.5,13.3,30.39,WSW,247,0.0,0.0,87,0.00,CLR,,0.00,WeatherDisplay:10.37,2013-01-07 10:17:00,
2013-01-07 04:22:00,16.5,13.3,30.38,WSW,247,0.0,0.0,87,0.00,CLR,,0.00,WeatherDisplay:10.37,2013-01-07 10:22:00,
2013-01-07 04:27:00,16.5,13.3,30.39,WSW,247,0.0,0.0,87,0.00,CLR,,0.00,WeatherDisplay:10.37,2013-01-07 10:27:00,
2013-01-07 04:32:00,16.4,13.2,30.39,WSW,247,0.0,0.0,87,0.00,CLR,,0.00,WeatherDisplay:10.37,2013-01-07 10:32:00,
2013-01-07 04:37:00,16.2,13.0,30.39,WSW,247,0.0,0.0,87,0.00,CLR,,0.00,WeatherDisplay:10.37,2013-01-07 10:37:00,
2013-01-07 04:42:00,16.2,13.0,30.39,WSW,247,0.0,0.0,87,0.00,CLR,,0.00,WeatherDisplay:10.37,2013-01-07 10:42:00,
2013-01-07 04:47:00,16.1,12.9,30.39,WSW,247,0.0,0.0,87,0.00,CLR,,0.00,WeatherDisplay:10.37,2013-01-07 10:47:00,
2013-01-07 04:52:00,16.1,12.9,30.39,WSW,247,0.0,0.0,87,0.00,CLR,,0.00,WeatherDisplay:10.37,2013-01-07 10:52:00,
2013-01-07 04:57:00,16.1,12.9,30.39,WSW,247,0.0,0.0,87,0.00,CLR,,0.00,WeatherDisplay:10.37,2013-01-07 10:57:00,
2013-01-07 05:02:00,16.1,12.9,30.39,WSW,247,0.0,0.0,87,0.00,CLR,,0.00,WeatherDisplay:10.37,2013-01-07 11:02:00,
2013-01-07 05:07:00,16.1,12.9,30.39,WSW,247,0.0,0.0,87,0.00,CLR,,0.00,WeatherDisplay:10.37,2013-01-07 11:07:00,
2013-01-07 05:12:00,16.2,13.0,30.40,WSW,247,0.3,1.1,87,0.00,CLR,,0.00,WeatherDisplay:10.37,2013-01-07 11:12:00,
2013-01-07 05:18:00,16.4,13.2,30.40,WSW,247,0.0,0.0,87,0.00,CLR,,0.00,WeatherDisplay:10.37,2013-01-07 11:18:00,
2013-01-07 05:23:00,16.4,13.2,30.40,WSW,247,0.0,0.0,87,0.00,CLR,,0.00,WeatherDisplay:10.37,2013-01-07 11:23:00,
2013-01-07 05:28:00,16.5,13.6,30.39,WSW,247,0.0,0.0,88,0.00,CLR,,0.00,WeatherDisplay:10.37,2013-01-07 11:28:00,
2013-01-07 05:33:00,16.7,13.8,30.39,WSW,247,0.0,0.0,88,0.00,CLR,,0.00,WeatherDisplay:10.37,2013-01-07 11:33:00,
2013-01-07 05:38:00,17.0,14.1,30.39,SSW,210,0.0,0.0,88,0.00,CLR,,0.00,WeatherDisplay:10.37,2013-01-07 11:38:00,
2013-01-07 05:43:00,17.3,14.4,30.39,SSW,210,1.0,3.5,88,0.00,CLR,,0.00,WeatherDisplay:10.37,2013-01-07 11:43:00,
2013-01-07 05:48:00,17.5,14.6,30.39,SSW,210,0.0,0.0,88,0.00,CLR,,0.00,WeatherDisplay:10.37,2013-01-07 11:48:00,
2013-01-07 05:53:00,17.5,14.6,30.39,SSW,210,0.0,0.0,88,0.00,CLR,,0.00,WeatherDisplay:10.37,2013-01-07 11:53:00,
2013-01-07 05:58:00,17.5,14.6,30.40,SSW,210,0.0,0.0,88,0.00,CLR,,0.00,WeatherDisplay:10.37,2013-01-07 11:58:00,
2013-01-07 06:03:00,17.3,14.4,30.40,SSW,210,0.0,0.0,88,0.00,CLR,,0.00,WeatherDisplay:10.37,2013-01-07 12:03:00,
2013-01-07 06:08:00,17.2,14.3,30.40,SSW,210,0.0,0.0,88,0.00,CLR,,0.00,WeatherDisplay:10.37,2013-01-07 12:08:00,
2013-01-07 06:13:00,17.2,14.3,30.40,SSW,210,0.0,0.0,88,0.00,CLR,,0.00,WeatherDisplay:10.37,2013-01-07 12:13:00,
2013-01-07 06:18:00,17.2,14.3,30.40,SSW,210,0.0,0.0,88,0.00,CLR,,0.00,WeatherDisplay:10.37,2013-01-07 12:18:00,
2013-01-07 06:23:00,17.5,14.6,30.40,SSW,210,0.2,1.1,88,0.00,CLR,,0.00,WeatherDisplay:10.37,2013-01-07 12:23:00,
2013-01-07 06:28:00,17.8,14.8,30.40,SSW,210,0.2,1.1,88,0.00,CLR,,0.00,WeatherDisplay:10.37,2013-01-07 12:28:00,
2013-01-07 06:33:00,18.0,15.0,30.40,SSW,210,0.7,1.1,88,0.00,CLR,,0.00,WeatherDisplay:10.37,2013-01-07 12:33:00,
2013-01-07 06:38:00,18.1,15.1,30.40,South,173,0.6,1.1,88,0.00,CLR,,0.00,WeatherDisplay:10.37,2013-01-07 12:38:00,
2013-01-07 06:43:00,18.3,15.3,30.40,South,173,0.2,1.1,88,0.00,CLR,,0.00,WeatherDisplay:10.37,2013-01-07 12:43:00,
2013-01-07 06:48:00,18.4,15.4,30.40,South,188,0.7,1.1,88,0.00,CLR,,0.00,WeatherDisplay:10.37,2013-01-07 12:48:00,
2013-01-07 06:53:00,18.6,15.9,30.40,South,188,1.1,3.5,89,0.00,CLR,,0.00,WeatherDisplay:10.37,2013-01-07 12:53:00,
2013-01-07 06:58:00,18.8,15.8,30.40,South,175,0.1,1.1,88,0.00,CLR,,0.00,WeatherDisplay:10.37,2013-01-07 12:58:00,
2013-01-07 07:03:00,18.9,15.9,30.39,South,175,0.0,0.0,88,0.00,CLR,,0.00,WeatherDisplay:10.37,2013-01-07 13:03:00,
2013-01-07 07:08:00,18.9,15.9,30.40,SSE,163,1.7,4.6,88,0.00,CLR,,0.00,WeatherDisplay:10.37,2013-01-07 13:08:00,
2013-01-07 07:13:00,19.1,16.1,30.40,SSE,150,2.5,4.6,88,0.00,CLR,,0.00,WeatherDisplay:10.37,2013-01-07 13:13:00,
2013-01-07 07:18:00,19.1,16.1,30.40,SSE,150,0.5,1.1,88,0.00,CLR,,0.00,WeatherDisplay:10.37,2013-01-07 13:18:00,
2013-01-07 07:23:00,19.1,16.1,30.39,SSE,154,1.3,3.5,88,0.00,CLR,,0.00,WeatherDisplay:10.37,2013-01-07 13:23:00,
2013-01-07 07:28:00,19.1,16.1,30.39,SSE,154,2.6,4.6,88,0.00,CLR,,0.00,WeatherDisplay:10.37,2013-01-07 13:28:00,
2013-01-07 07:33:00,19.2,16.2,30.39,SSE,154,1.5,1.5,88,0.00,CLR,,0.00,WeatherDisplay:10.37,2013-01-07 13:33:00,
2013-01-07 07:38:00,19.4,16.4,30.39,SSE,154,1.0,3.5,88,0.00,CLR,,0.00,WeatherDisplay:10.37,2013-01-07 13:38:00,
2013-01-07 07:43:00,19.7,16.7,30.39,SSE,154,1.6,3.5,88,0.00,CLR,,0.00,WeatherDisplay:10.37,2013-01-07 13:43:00,
2013-01-07 07:48:00,19.9,16.9,30.39,SSE,154,2.1,3.0,88,0.00,CLR,,0.00,WeatherDisplay:10.37,2013-01-07 13:48:00,
2013-01-07 07:53:00,20.2,17.2,30.39,SSE,154,1.8,3.5,88,0.00,CLR,,0.00,WeatherDisplay:10.37,2013-01-07 13:53:00,
2013-01-07 07:58:00,20.5,17.5,30.39,SE,128,5.5,5.5,88,0.00,CLR,,0.00,WeatherDisplay:10.37,2013-01-07 13:58:00,
2013-01-07 08:03:00,20.8,17.8,30.39,SE,128,2.8,3.0,88,0.00,CLR,,0.00,WeatherDisplay:10.37,2013-01-07 14:03:00,
2013-01-07 08:08:00,21.0,18.0,30.39,SE,131,4.4,5.8,88,0.00,CLR,,0.00,WeatherDisplay:10.37,2013-01-07 14:08:00,
2013-01-07 08:13:00,21.3,18.3,30.39,ESE,121,2.3,5.8,88,0.00,CLR,,0.00,WeatherDisplay:10.37,2013-01-07 14:13:00,
2013-01-07 08:18:00,21.6,18.6,30.39,SSE,163,5.2,5.2,88,0.00,CLR,,0.00,WeatherDisplay:10.37,2013-01-07 14:18:00,
2013-01-07 08:23:00,22.1,19.1,30.39,South,175,3.5,3.5,88,0.00,CLR,,0.00,WeatherDisplay:10.37,2013-01-07 14:23:00,
2013-01-07 08:28:00,22.5,19.5,30.39,SE,138,1.4,3.5,88,0.00,CLR,,0.00,WeatherDisplay:10.37,2013-01-07 14:28:00,
2013-01-07 08:33:00,23.2,20.2,30.39,SE,141,2.7,3.5,88,0.00,CLR,,0.00,WeatherDisplay:10.37,2013-01-07 14:33:00,
2013-01-07 08:38:00,23.6,20.3,30.39,SSE,157,4.3,4.6,87,0.00,CLR,,0.00,WeatherDisplay:10.37,2013-01-07 14:38:00,
2013-01-07 08:43:00,23.9,20.6,30.39,SE,144,7.7,9.2,87,0.00,CLR,,0.00,WeatherDisplay:10.37,2013-01-07 14:43:00,
2013-01-07 08:48:00,24.4,21.1,30.39,SSE,157,1.9,3.5,87,0.00,CLR,,0.00,WeatherDisplay:10.37,2013-01-07 14:48:00,
2013-01-07 08:53:00,24.7,21.1,30.39,SSE,149,5.9,8.1,86,0.00,CLR,,0.00,WeatherDisplay:10.37,2013-01-07 14:53:00,
2013-01-07 08:58:00,25.0,21.1,30.39,South,170,7.5,8.1,85,0.00,CLR,,0.00,WeatherDisplay:10.37,2013-01-07 14:58:00,
2013-01-07 09:03:00,25.0,21.1,30.39,SSE,163,10.8,16.1,85,0.00,CLR,,0.00,WeatherDisplay:10.37,2013-01-07 15:03:00,
2013-01-07 09:09:00,25.3,21.1,30.40,South,178,4.7,5.8,84,0.00,CLR,,0.00,WeatherDisplay:10.37,2013-01-07 15:09:00,
2013-01-07 09:14:00,25.6,21.4,30.40,SSE,165,1.8,3.5,84,0.00,CLR,,0.00,WeatherDisplay:10.37,2013-01-07 15:14:00,
2013-01-07 09:19:00,25.8,21.3,30.40,SSE,168,4.2,5.8,83,0.00,CLR,,0.00,WeatherDisplay:10.37,2013-01-07 15:19:00,
2013-01-07 09:24:00,26.4,21.9,30.40,SSE,149,2.1,5.8,83,0.00,CLR,,0.00,WeatherDisplay:10.37,2013-01-07 15:24:00,
2013-01-07 09:29:00,26.9,21.8,30.40,East,97,7.4,8.1,81,0.00,CLR,,0.00,WeatherDisplay:10.37,2013-01-07 15:29:00,
2013-01-07 09:34:00,26.9,21.8,30.40,South,172,2.2,4.5,81,0.00,CLR,,0.00,WeatherDisplay:10.37,2013-01-07 15:34:00,
2013-01-07 09:39:00,27.3,21.9,30.40,SSW,193,6.5,9.2,80,0.00,CLR,,0.00,WeatherDisplay:10.37,2013-01-07 15:39:00,
2013-01-07 09:44:00,27.3,21.6,30.40,SSW,197,6.5,9.2,79,0.00,CLR,,0.00,WeatherDisplay:10.37,2013-01-07 15:44:00,
2013-01-07 09:49:00,27.5,21.8,30.40,South,169,12.7,16.1,79,0.00,CLR,,0.00,WeatherDisplay:10.37,2013-01-07 15:49:00,
2013-01-07 09:54:00,27.8,22.1,30.40,South,170,4.2,8.1,79,0.00,CLR,,0.00,WeatherDisplay:10.37,2013-01-07 15:54:00,
2013-01-07 09:59:00,27.9,21.9,30.39,SSE,148,13.6,15.0,78,0.00,CLR,,0.00,WeatherDisplay:10.37,2013-01-07 15:59:00,
2013-01-07 10:04:00,27.8,21.5,30.39,South,173,10.6,20.7,77,0.00,CLR,,0.00,WeatherDisplay:10.37,2013-01-07 16:04:00,
2013-01-07 10:09:00,28.1,21.8,30.39,South,177,11.8,15.0,77,0.00,CLR,,0.00,WeatherDisplay:10.37,2013-01-07 16:09:00,
2013-01-07 10:14:00,28.5,22.2,30.38,SE,143,10.5,13.8,77,0.00,CLR,,0.00,WeatherDisplay:10.37,2013-01-07 16:14:00,
2013-01-07 10:19:00,28.7,22.1,30.38,South,170,11.8,11.8,76,0.00,CLR,,0.00,WeatherDisplay:10.37,2013-01-07 16:19:00,
2013-01-07 10:24:00,29.1,22.2,30.37,SSE,162,10.7,13.8,75,0.00,CLR,,0.00,WeatherDisplay:10.37,2013-01-07 16:24:00,
2013-01-07 10:29:00,29.1,22.2,30.37,South,175,6.7,16.1,75,0.00,CLR,,0.00,WeatherDisplay:10.37,2013-01-07 16:29:00,
2013-01-07 10:34:00,29.7,22.7,30.37,SSE,149,2.4,8.1,75,0.00,CLR,,0.00,WeatherDisplay:10.37,2013-01-07 16:34:00,
2013-01-07 10:39:00,30.1,22.8,30.36,SE,140,11.7,13.8,74,0.00,CLR,,0.00,WeatherDisplay:10.37,2013-01-07 16:39:00,
2013-01-07 10:44:00,30.6,23.3,30.36,South,178,9.9,9.9,74,0.00,CLR,,0.00,WeatherDisplay:10.37,2013-01-07 16:44:00,
2013-01-07 10:49:00,30.7,23.1,30.35,SE,144,8.8,9.2,73,0.00,CLR,,0.00,WeatherDisplay:10.37,2013-01-07 16:49:00,
2013-01-07 10:54:00,30.7,23.1,30.35,SSE,164,7.7,10.4,73,0.00,CLR,,0.00,WeatherDisplay:10.37,2013-01-07 16:54:00,
2013-01-07 10:59:00,31.3,23.6,30.35,SE,133,8.4,10.4,73,0.00,CLR,,0.00,WeatherDisplay:10.37,2013-01-07 16:59:00,
2013-01-07 11:04:00,31.2,23.2,30.35,SSE,164,12.5,15.0,72,0.00,CLR,,0.00,WeatherDisplay:10.37,2013-01-07 17:04:00,
2013-01-07 11:09:00,31.3,23.3,30.34,SE,139,9.5,9.5,72,0.00,CLR,,0.00,WeatherDisplay:10.37,2013-01-07 17:09:00,
2013-01-07 11:14:00,31.5,23.2,30.33,SE,134,14.5,16.5,71,0.00,CLR,,0.00,WeatherDisplay:10.37,2013-01-07 17:14:00,
2013-01-07 11:19:00,31.6,23.3,30.33,South,178,12.8,13.8,71,0.00,CLR,,0.00,WeatherDisplay:10.37,2013-01-07 17:19:00,
2013-01-07 11:24:00,31.9,23.6,30.33,SSE,161,8.4,13.8,71,0.00,CLR,,0.00,WeatherDisplay:10.37,2013-01-07 17:24:00,
2013-01-07 11:29:00,32.2,23.5,30.32,SE,125,12.2,18.0,70,0.00,CLR,,0.00,WeatherDisplay:10.37,2013-01-07 17:29:00,
2013-01-07 11:34:00,32.8,24.1,30.32,SE,133,8.9,9.0,70,0.00,CLR,,0.00,WeatherDisplay:10.37,2013-01-07 17:34:00,
2013-01-07 11:39:00,32.8,23.7,30.32,South,175,9.2,18.4,69,0.00,CLR,,0.00,WeatherDisplay:10.37,2013-01-07 17:39:00,
2013-01-07 11:44:00,32.9,23.8,30.31,SSE,155,15.6,18.4,69,0.00,CLR,,0.00,WeatherDisplay:10.37,2013-01-07 17:44:00,
2013-01-07 11:49:00,33.1,23.7,30.30,SE,145,11.1,24.2,68,0.00,CLR,,0.00,WeatherDisplay:10.37,2013-01-07 17:49:00,
2013-01-07 11:54:00,33.7,24.3,30.30,SSE,163,8.7,8.7,68,0.00,CLR,,0.00,WeatherDisplay:10.37,2013-01-07 17:54:00,
2013-01-07 11:59:00,33.8,24.0,30.30,SE,138,8.7,8.7,67,0.00,CLR,,0.00,WeatherDisplay:10.37,2013-01-07 17:59:00,
2013-01-07 12:04:00,33.7,23.5,30.30,ESE,103,15.2,18.4,66,0.00,CLR,,0.00,WeatherDisplay:10.37,2013-01-07 18:04:00,
2013-01-07 12:09:00,34.0,23.8,30.30,South,184,14.1,14.1,66,0.00,CLR,,0.00,WeatherDisplay:10.37,2013-01-07 18:09:00,
2013-01-07 12:14:00,33.7,23.9,30.30,SSE,167,12.7,16.5,67,0.00,CLR,,0.00,WeatherDisplay:10.37,2013-01-07 18:14:00,
2013-01-07 12:19:00,33.7,23.9,30.29,SSE,155,14.0,14.0,67,0.00,CLR,,0.00,WeatherDisplay:10.37,2013-01-07 18:19:00,
2013-01-07 12:24:00,33.5,23.7,30.29,South,171,13.2,13.2,67,0.00,CLR,,0.00,WeatherDisplay:10.37,2013-01-07 18:24:00,
2013-01-07 12:29:00,34.1,24.6,30.29,SE,126,4.8,5.8,68,0.00,CLR,,0.00,WeatherDisplay:10.37,2013-01-07 18:29:00,
2013-01-07 12:34:00,34.4,24.6,30.29,South,171,7.4,7.4,67,0.00,CLR,,0.00,WeatherDisplay:10.37,2013-01-07 18:34:00,
2013-01-07 12:39:00,34.3,24.1,30.28,SE,136,16.1,24.2,66,0.00,CLR,,0.00,WeatherDisplay:10.37,2013-01-07 18:39:00,
2013-01-07 12:44:00,34.3,24.1,30.28,South,182,9.4,23.0,66,0.00,CLR,,0.00,WeatherDisplay:10.37,2013-01-07 18:44:00,
2013-01-07 12:49:00,34.3,24.1,30.28,SSE,157,7.4,16.1,66,0.00,CLR,,0.00,WeatherDisplay:10.37,2013-01-07 18:49:00,
2013-01-07 12:54:00,34.3,24.1,30.28,SSE,149,14.5,15.0,66,0.00,CLR,,0.00,WeatherDisplay:10.37,2013-01-07 18:54:00,
2013-01-07 12:59:00,34.3,24.1,30.28,SSE,165,17.2,20.7,66,0.00,CLR,,0.00,WeatherDisplay:10.37,2013-01-07 18:59:00,
2013-01-07 13:04:00,34.4,24.2,30.28,SE,132,9.6,9.6,66,0.00,CLR,,0.00,WeatherDisplay:10.37,2013-01-07 19:04:00,
2013-01-07 13:09:00,34.4,24.2,30.27,SSE,153,11.7,16.1,66,0.00,CLR,,0.00,WeatherDisplay:10.37,2013-01-07 19:09:00,
2013-01-07 13:14:00,34.6,24.4,30.27,SSE,155,18.0,18.0,66,0.00,CLR,,0.00,WeatherDisplay:10.37,2013-01-07 19:14:00,
2013-01-07 13:19:00,34.4,24.6,30.27,South,184,4.8,5.8,67,0.00,CLR,,0.00,WeatherDisplay:10.37,2013-01-07 19:19:00,
2013-01-07 13:24:00,35.0,24.8,30.27,SSE,159,9.0,10.4,66,0.00,CLR,,0.00,WeatherDisplay:10.37,2013-01-07 19:24:00,
2013-01-07 13:29:00,35.0,24.8,30.27,South,169,6.8,10.5,66,0.00,CLR,,0.00,WeatherDisplay:10.37,2013-01-07 19:29:00,
2013-01-07 13:34:00,34.9,24.7,30.27,SE,138,16.4,19.6,66,0.00,CLR,,0.00,WeatherDisplay:10.37,2013-01-07 19:34:00,
2013-01-07 13:39:00,34.7,24.5,30.26,SE,135,6.3,8.1,66,0.00,CLR,,0.00,WeatherDisplay:10.37,2013-01-07 19:39:00,
2013-01-07 13:44:00,35.0,25.1,30.26,South,186,6.4,10.4,67,0.00,CLR,,0.00,WeatherDisplay:10.37,2013-01-07 19:44:00,
2013-01-07 13:49:00,35.2,25.3,30.26,SSE,166,8.0,15.0,67,0.00,CLR,,0.00,WeatherDisplay:10.37,2013-01-07 19:49:00,
2013-01-07 13:54:00,35.5,25.2,30.25,SSE,162,12.0,15.0,66,0.00,CLR,,0.00,WeatherDisplay:10.37,2013-01-07 19:54:00,
2013-01-07 13:59:00,34.9,24.7,30.25,South,169,14.0,18.0,66,0.00,CLR,,0.00,WeatherDisplay:10.37,2013-01-07 19:59:00,
2013-01-07 14:04:00,34.7,24.5,30.25,SSE,159,16.0,18.0,66,0.00,CLR,,0.00,WeatherDisplay:10.37,2013-01-07 20:04:00,
2013-01-07 14:09:00,34.6,24.4,30.24,SE,134,17.4,25.5,66,0.00,CLR,,0.00,WeatherDisplay:10.37,2013-01-07 20:09:00,
2013-01-07 14:14:00,34.6,24.8,30.24,SSE,152,12.0,25.0,67,0.00,CLR,,0.00,WeatherDisplay:10.37,2013-01-07 20:14:00,
2013-01-07 14:19:00,34.9,25.0,30.24,South,188,5.0,6.0,67,0.00,CLR,,0.00,WeatherDisplay:10.37,2013-01-07 20:19:00,
2013-01-07 14:24:00,34.9,24.7,30.24,SSE,157,12.7,13.8,66,0.00,CLR,,0.00,WeatherDisplay:10.37,2013-01-07 20:24:00,
2013-01-07 14:29:00,34.9,25.0,30.24,South,181,5.8,19.6,67,0.00,CLR,,0.00,WeatherDisplay:10.37,2013-01-07 20:29:00,
2013-01-07 14:34:00,34.9,25.0,30.24,SW,217,7.6,16.1,67,0.00,CLR,,0.00,WeatherDisplay:10.37,2013-01-07 20:34:00,
2013-01-07 14:39:00,34.7,24.9,30.24,SSE,167,4.5,11.5,67,0.00,CLR,,0.00,WeatherDisplay:10.37,2013-01-07 20:39:00,
2013-01-07 14:44:00,34.7,24.9,30.24,SSW,194,12.6,12.6,67,0.00,CLR,,0.00,WeatherDisplay:10.37,2013-01-07 20:44:00,
2013-01-07 14:49:00,34.7,24.9,30.24,SE,132,5.6,13.8,67,0.00,CLR,,0.00,WeatherDisplay:10.37,2013-01-07 20:49:00,
2013-01-07 14:54:00,34.9,25.4,30.24,South,186,4.7,5.8,68,0.00,CLR,,0.00,WeatherDisplay:10.37,2013-01-07 20:54:00,
2013-01-07 14:59:00,34.7,25.2,30.24,South,189,6.5,10.4,68,0.00,CLR,,0.00,WeatherDisplay:10.37,2013-01-07 20:59:00,
2013-01-07 15:04:00,34.7,25.2,30.24,South,173,3.2,8.1,68,0.00,CLR,,0.00,WeatherDisplay:10.37,2013-01-07 21:04:00,
2013-01-07 15:09:00,34.9,25.8,30.24,SSW,194,5.8,5.8,69,0.00,CLR,,0.00,WeatherDisplay:10.37,2013-01-07 21:09:00,
2013-01-07 15:14:00,34.9,25.4,30.24,SE,139,6.4,8.1,68,0.00,CLR,,0.00,WeatherDisplay:10.37,2013-01-07 21:14:00,
2013-01-07 15:19:00,34.6,25.1,30.24,South,180,21.0,21.0,68,0.00,CLR,,0.00,WeatherDisplay:10.37,2013-01-07 21:19:00,
2013-01-07 15:24:00,34.4,25.3,30.24,South,171,5.0,9.2,69,0.00,CLR,,0.00,WeatherDisplay:10.37,2013-01-07 21:24:00,
2013-01-07 15:29:00,34.4,25.3,30.23,SSE,156,4.2,10.4,69,0.00,CLR,,0.00,WeatherDisplay:10.37,2013-01-07 21:29:00,
2013-01-07 15:34:00,34.3,25.2,30.23,SSE,165,7.6,9.2,69,0.00,CLR,,0.00,WeatherDisplay:10.37,2013-01-07 21:34:00,
2013-01-07 15:39:00,34.1,25.0,30.23,South,174,6.7,6.7,69,0.00,CLR,,0.00,WeatherDisplay:10.37,2013-01-07 21:39:00,
2013-01-07 15:44:00,34.0,24.9,30.23,SSE,147,7.7,9.2,69,0.00,CLR,,0.00,WeatherDisplay:10.37,2013-01-07 21:44:00,
2013-01-07 15:49:00,34.0,24.9,30.23,South,173,6.3,6.3,69,0.00,CLR,,0.00,WeatherDisplay:10.37,2013-01-07 21:49:00,
2013-01-07 15:54:00,33.8,24.7,30.23,SSE,155,7.4,9.2,69,0.00,CLR,,0.00,WeatherDisplay:10.37,2013-01-07 21:54:00,
2013-01-07 15:59:00,33.7,24.6,30.23,SE,140,7.1,10.4,69,0.00,CLR,,0.00,WeatherDisplay:10.37,2013-01-07 21:59:00,
2013-01-07 16:04:00,33.5,24.8,30.24,SSE,149,2.6,3.0,70,0.00,CLR,,0.00,WeatherDisplay:10.37,2013-01-07 22:04:00,
2013-01-07 16:09:00,33.5,24.8,30.23,South,183,2.1,4.6,70,0.00,CLR,,0.00,WeatherDisplay:10.37,2013-01-07 22:09:00,
2013-01-07 16:14:00,33.4,24.7,30.23,SSE,161,5.0,11.0,70,0.00,CLR,,0.00,WeatherDisplay:10.37,2013-01-07 22:14:00,
2013-01-07 16:19:00,33.2,24.5,30.23,SSE,167,3.0,9.0,70,0.00,CLR,,0.00,WeatherDisplay:10.37,2013-01-07 22:19:00,
2013-01-07 16:24:00,33.1,24.7,30.23,SSE,159,7.0,9.0,71,0.00,CLR,,0.00,WeatherDisplay:10.37,2013-01-07 22:24:00,
2013-01-07 16:29:00,32.9,24.5,30.23,SSE,161,2.0,8.0,71,0.00,CLR,,0.00,WeatherDisplay:10.37,2013-01-07 22:29:00,
2013-01-07 16:34:00,32.8,24.8,30.22,ESE,103,6.5,8.1,72,0.00,CLR,,0.00,WeatherDisplay:10.37,2013-01-07 22:34:00,
2013-01-07 16:39:00,32.6,24.6,30.22,SSE,155,8.0,9.0,72,0.00,CLR,,0.00,WeatherDisplay:10.37,2013-01-07 22:39:00,
2013-01-07 16:44:00,32.4,24.7,30.22,SSE,162,2.0,9.0,73,0.00,CLR,,0.00,WeatherDisplay:10.37,2013-01-07 22:44:00,
2013-01-07 16:49:00,32.2,24.5,30.22,SSE,161,5.0,9.0,73,0.00,CLR,,0.00,WeatherDisplay:10.37,2013-01-07 22:49:00,
2013-01-07 16:54:00,32.1,24.4,30.21,South,173,2.8,5.8,73,0.00,CLR,,0.00,WeatherDisplay:10.37,2013-01-07 22:54:00,
2013-01-07 16:59:00,31.9,24.2,30.21,South,169,9.0,13.8,73,0.00,CLR,,0.00,WeatherDisplay:10.37,2013-01-07 22:59:00,
2013-01-07 17:04:00,31.9,24.2,30.21,South,170,2.0,8.0,73,0.00,CLR,,0.00,WeatherDisplay:10.37,2013-01-07 23:04:00,
2013-01-07 17:09:00,31.6,24.3,30.21,South,170,8.0,11.0,74,0.00,CLR,,0.00,WeatherDisplay:10.37,2013-01-07 23:09:00,
2013-01-07 17:14:00,31.6,24.3,30.21,SSE,165,7.0,11.0,74,0.00,CLR,,0.00,WeatherDisplay:10.37,2013-01-07 23:14:00,
2013-01-07 17:19:00,31.5,24.2,30.20,South,173,7.0,9.0,74,0.00,CLR,,0.00,WeatherDisplay:10.37,2013-01-07 23:19:00,
2013-01-07 17:24:00,31.3,24.0,30.20,SSE,155,10.0,10.4,74,0.00,CLR,,0.00,WeatherDisplay:10.37,2013-01-07 23:24:00,
2013-01-07 17:29:00,31.2,23.9,30.20,SSE,167,5.8,8.1,74,0.00,CLR,,0.00,WeatherDisplay:10.37,2013-01-07 23:29:00,
2013-01-07 17:34:00,31.2,23.9,30.20,South,171,9.0,9.0,74,0.00,CLR,,0.00,WeatherDisplay:10.37,2013-01-07 23:34:00,
2013-01-07 17:39:00,31.0,23.7,30.20,SSE,159,7.0,14.0,74,0.00,CLR,,0.00,WeatherDisplay:10.37,2013-01-07 23:39:00,
2013-01-07 17:44:00,31.0,23.7,30.20,SE,146,4.8,7.5,74,0.00,CLR,,0.00,WeatherDisplay:10.37,2013-01-07 23:44:00,
2013-01-07 17:49:00,31.0,23.7,30.20,SSE,154,5.0,9.0,74,0.00,CLR,,0.00,WeatherDisplay:10.37,2013-01-07 23:49:00,
2013-01-07 17:54:00,30.9,23.6,30.20,SSE,160,3.0,8.0,74,0.00,CLR,,0.00,WeatherDisplay:10.37,2013-01-07 23:54:00,
2013-01-07 17:59:00,30.9,23.6,30.21,SE,139,3.2,3.2,74,0.00,CLR,,0.00,WeatherDisplay:10.37,2013-01-07 23:59:00,
2013-01-07 18:04:00,30.7,23.4,30.21,SE,140,1.0,8.0,74,0.00,CLR,,0.00,WeatherDisplay:10.37,2013-01-08 00:04:00,
2013-01-07 18:09:00,30.6,23.3,30.21,SE,144,0.0,3.0,74,0.00,CLR,,0.00,WeatherDisplay:10.37,2013-01-08 00:09:00,
2013-01-07 18:14:00,30.6,23.3,30.21,SSE,163,3.0,8.0,74,0.00,CLR,,0.00,WeatherDisplay:10.37,2013-01-08 00:14:00,
2013-01-07 18:19:00,30.4,23.4,30.21,SSE,168,2.0,5.0,75,0.00,CLR,,0.00,WeatherDisplay:10.37,2013-01-08 00:19:00,
2013-01-07 18:24:00,30.2,23.2,30.21,South,181,1.0,3.0,75,0.00,CLR,,0.00,WeatherDisplay:10.37,2013-01-08 00:24:00,
2013-01-07 18:29:00,30.0,23.4,30.21,SSW,211,0.7,3.5,76,0.00,CLR,,0.00,WeatherDisplay:10.37,2013-01-08 00:29:00,
2013-01-07 18:34:00,29.7,23.1,30.21,SSE,165,2.4,4.6,76,0.00,CLR,,0.00,WeatherDisplay:10.37,2013-01-08 00:34:00,
2013-01-07 18:39:00,29.5,23.2,30.21,SSE,165,3.0,6.0,77,0.00,CLR,,0.00,WeatherDisplay:10.37,2013-01-08 00:39:00,
2013-01-07 18:44:00,29.5,23.2,30.21,SSE,162,1.0,6.0,77,0.00,CLR,,0.00,WeatherDisplay:10.37,2013-01-08 00:44:00,
2013-01-07 18:49:00,29.4,23.1,30.21,SSE,167,1.0,5.0,77,0.00,CLR,,0.00,WeatherDisplay:10.37,2013-01-08 00:49:00,
2013-01-07 18:54:00,29.3,23.0,30.21,South,169,1.2,3.5,77,0.00,CLR,,0.00,WeatherDisplay:10.37,2013-01-08 00:54:00,
2013-01-07 18:59:00,29.1,23.1,30.21,South,169,1.9,1.9,78,0.00,CLR,,0.00,WeatherDisplay:10.37,2013-01-08 00:59:00,
2013-01-07 19:04:00,29.0,23.0,30.21,SSE,150,2.0,5.0,78,0.00,CLR,,0.00,WeatherDisplay:10.37,2013-01-08 01:04:00,
2013-01-07 19:09:00,28.8,22.8,30.20,SE,133,1.0,3.0,78,0.00,CLR,,0.00,WeatherDisplay:10.37,2013-01-08 01:09:00,
2013-01-07 19:14:00,28.8,22.8,30.20,SE,133,1.0,9.0,78,0.00,CLR,,0.00,WeatherDisplay:10.37,2013-01-08 01:14:00,
2013-01-07 19:19:00,28.7,22.7,30.21,SSE,157,2.0,9.0,78,0.00,CLR,,0.00,WeatherDisplay:10.37,2013-01-08 01:19:00,
2013-01-07 19:24:00,28.7,22.7,30.20,SE,137,4.9,5.8,78,0.00,CLR,,0.00,WeatherDisplay:10.37,2013-01-08 01:24:00,
2013-01-07 19:29:00,28.5,22.5,30.20,SE,137,1.9,3.5,78,0.00,CLR,,0.00,WeatherDisplay:10.37,2013-01-08 01:29:00,
2013-01-07 19:34:00,28.5,22.8,30.20,SSE,151,6.0,8.0,79,0.00,CLR,,0.00,WeatherDisplay:10.37,2013-01-08 01:34:00,
2013-01-07 19:39:00,28.4,22.7,30.20,SE,145,5.0,6.0,79,0.00,CLR,,0.00,WeatherDisplay:10.37,2013-01-08 01:39:00,
2013-01-07 19:44:00,28.4,22.7,30.20,SE,143,5.0,6.0,79,0.00,CLR,,0.00,WeatherDisplay:10.37,2013-01-08 01:44:00,
2013-01-07 19:49:00,28.2,22.5,30.19,SSE,152,3.0,5.0,79,0.00,CLR,,0.00,WeatherDisplay:10.37,2013-01-08 01:49:00,
2013-01-07 19:54:00,28.1,22.4,30.19,SE,143,5.9,5.9,79,0.00,CLR,,0.00,WeatherDisplay:10.37,2013-01-08 01:54:00,
2013-01-07 19:59:00,28.1,22.4,30.19,SE,139,3.2,5.8,79,0.00,CLR,,0.00,WeatherDisplay:10.37,2013-01-08 01:59:00,
2013-01-07 20:04:00,28.1,22.4,30.19,SSE,147,6.0,9.0,79,0.00,CLR,,0.00,WeatherDisplay:10.37,2013-01-08 02:04:00,
2013-01-07 20:09:00,27.9,22.2,30.19,SSE,154,2.0,5.0,79,0.00,CLR,,0.00,WeatherDisplay:10.37,2013-01-08 02:09:00,
2013-01-07 20:14:00,27.9,22.2,30.19,SSE,152,1.0,5.0,79,0.00,CLR,,0.00,WeatherDisplay:10.37,2013-01-08 02:14:00,
2013-01-07 20:19:00,27.8,22.1,30.19,SSE,154,3.0,5.0,79,0.00,CLR,,0.00,WeatherDisplay:10.37,2013-01-08 02:19:00,
2013-01-07 20:24:00,27.8,22.4,30.19,SSE,165,5.5,9.2,80,0.00,CLR,,0.00,WeatherDisplay:10.37,2013-01-08 02:24:00,
2013-01-07 20:29:00,27.8,22.4,30.19,SSE,147,4.1,6.0,80,0.00,CLR,,0.00,WeatherDisplay:10.37,2013-01-08 02:29:00,
2013-01-07 20:34:00,27.8,22.4,30.18,SSE,147,3.0,9.0,80,0.00,CLR,,0.00,WeatherDisplay:10.37,2013-01-08 02:34:00,
2013-01-07 20:39:00,27.6,22.2,30.18,SE,139,10.0,10.0,80,0.00,CLR,,0.00,WeatherDisplay:10.37,2013-01-08 02:39:00,
2013-01-07 20:44:00,27.6,22.2,30.18,SE,140,10.0,14.0,80,0.00,CLR,,0.00,WeatherDisplay:10.37,2013-01-08 02:44:00,
2013-01-07 20:49:00,27.6,22.2,30.18,SSE,148,8.2,15.0,80,0.00,CLR,,0.00,WeatherDisplay:10.37,2013-01-08 02:49:00,
2013-01-07 20:54:00,27.8,22.4,30.18,SE,135,8.0,8.0,80,0.00,CLR,,0.00,WeatherDisplay:10.37,2013-01-08 02:54:00,
2013-01-07 20:59:00,27.9,22.5,30.18,South,186,12.0,15.0,80,0.00,CLR,,0.00,WeatherDisplay:10.37,2013-01-08 02:59:00,
2013-01-07 21:04:00,27.9,22.5,30.18,SSE,156,9.4,10.5,80,0.00,CLR,,0.00,WeatherDisplay:10.37,2013-01-08 03:04:00,
2013-01-07 21:09:00,28.2,22.8,30.18,SSE,153,7.0,15.0,80,0.00,CLR,,0.00,WeatherDisplay:10.37,2013-01-08 03:09:00,
2013-01-07 21:14:00,28.3,22.9,30.18,SSE,165,5.0,12.0,80,0.00,CLR,,0.00,WeatherDisplay:10.37,2013-01-08 03:14:00,
2013-01-07 21:19:00,28.4,22.7,30.19,South,171,2.0,8.0,79,0.00,CLR,,0.00,WeatherDisplay:10.37,2013-01-08 03:19:00,
2013-01-07 21:24:00,28.4,22.7,30.18,SE,139,4.2,4.6,79,0.00,CLR,,0.00,WeatherDisplay:10.37,2013-01-08 03:24:00,
2013-01-07 21:29:00,28.3,22.6,30.17,SSE,152,9.0,9.0,79,0.00,CLR,,0.00,WeatherDisplay:10.37,2013-01-08 03:29:00,
2013-01-07 21:34:00,28.5,22.8,30.17,SSE,158,8.0,11.0,79,0.00,CLR,,0.00,WeatherDisplay:10.37,2013-01-08 03:34:00,
2013-01-07 21:39:00,28.7,23.0,30.17,SSE,163,7.0,11.0,79,0.00,CLR,,0.00,WeatherDisplay:10.37,2013-01-08 03:39:00,
2013-01-07 21:44:00,29.0,23.3,30.17,SSE,158,8.0,15.0,79,0.00,CLR,,0.00,WeatherDisplay:10.37,2013-01-08 03:44:00,
2013-01-07 21:49:00,29.3,23.6,30.17,SSE,153,9.0,17.0,79,0.00,CLR,,0.00,WeatherDisplay:10.37,2013-01-08 03:49:00,
2013-01-07 21:54:00,29.4,23.7,30.16,SSE,159,8.5,10.4,79,0.00,CLR,,0.00,WeatherDisplay:10.37,2013-01-08 03:54:00,
2013-01-07 21:59:00,29.7,23.7,30.16,South,182,7.4,13.5,78,0.00,CLR,,0.00,WeatherDisplay:10.37,2013-01-08 03:59:00,
2013-01-07 22:04:00,29.8,23.8,30.16,SSE,155,8.0,14.0,78,0.00,CLR,,0.00,WeatherDisplay:10.37,2013-01-08 04:04:00,
2013-01-07 22:09:00,30.0,24.0,30.16,SSE,162,6.0,9.0,78,0.00,CLR,,0.00,WeatherDisplay:10.37,2013-01-08 04:09:00,
2013-01-07 22:14:00,30.0,24.0,30.16,SSE,167,9.0,11.0,78,0.00,CLR,,0.00,WeatherDisplay:10.37,2013-01-08 04:14:00,
2013-01-07 22:19:00,30.3,24.0,30.16,SSE,162,7.0,18.0,77,0.00,CLR,,0.00,WeatherDisplay:10.37,2013-01-08 04:19:00,
2013-01-07 22:24:00,30.3,24.0,30.16,SSE,167,7.0,14.0,77,0.00,CLR,,0.00,WeatherDisplay:10.37,2013-01-08 04:24:00,
2013-01-07 22:29:00,30.3,24.0,30.16,SSE,163,6.0,9.0,77,0.00,CLR,,0.00,WeatherDisplay:10.37,2013-01-08 04:29:00,
2013-01-07 22:34:00,30.3,24.0,30.16,SSE,160,7.0,15.0,77,0.00,CLR,,0.00,WeatherDisplay:10.37,2013-01-08 04:34:00,
2013-01-07 22:39:00,30.1,23.8,30.16,SSE,164,3.0,8.0,77,0.00,CLR,,0.00,WeatherDisplay:10.37,2013-01-08 04:39:00,
2013-01-07 22:44:00,30.0,23.7,30.16,SSW,204,4.2,4.6,77,0.00,CLR,,0.00,WeatherDisplay:10.37,2013-01-08 04:44:00,
2013-01-07 22:49:00,29.5,23.2,30.16,WNW,290,4.3,5.8,77,0.00,CLR,,0.00,WeatherDisplay:10.37,2013-01-08 04:49:00,
2013-01-07 22:54:00,29.3,23.0,30.16,WSW,247,5.0,8.0,77,0.00,CLR,,0.00,WeatherDisplay:10.37,2013-01-08 04:54:00,
2013-01-07 22:59:00,29.0,23.0,30.16,South,186,3.0,6.0,78,0.00,CLR,,0.00,WeatherDisplay:10.37,2013-01-08 04:59:00,
2013-01-07 23:00:00,29.0,23.0,30.15,SSE,164,5.2,6.0,78,0.00,CLR,,0.00,WeatherDisplay:10.37,2013-01-08 05:00:00,
2013-01-07 23:01:00,29.0,23.0,30.15,SSE,166,4.6,5.8,78,0.00,CLR,,0.00,WeatherDisplay:10.37,2013-01-08 05:01:00,
2013-01-07 23:03:00,29.0,23.0,30.15,SSE,165,1.3,3.5,78,0.00,CLR,,0.00,WeatherDisplay:10.37,2013-01-08 05:03:00,
2013-01-07 23:08:00,28.8,23.1,30.15,SSE,150,6.7,8.1,79,0.00,CLR,,0.00,WeatherDisplay:10.37,2013-01-08 05:08:00,
2013-01-07 23:13:00,28.8,23.1,30.15,SSE,159,6.2,6.2,79,0.00,CLR,,0.00,WeatherDisplay:10.37,2013-01-08 05:13:00,
2013-01-07 23:18:00,28.7,23.0,30.15,South,186,6.9,6.9,79,0.00,CLR,,0.00,WeatherDisplay:10.37,2013-01-08 05:18:00,
2013-01-07 23:23:00,28.7,23.0,30.15,South,171,1.9,5.8,79,0.00,CLR,,0.00,WeatherDisplay:10.37,2013-01-08 05:23:00,
2013-01-07 23:28:00,28.5,22.8,30.15,South,189,6.0,6.0,79,0.00,CLR,,0.00,WeatherDisplay:10.37,2013-01-08 05:28:00,
2013-01-07 23:33:00,28.5,22.8,30.15,South,184,1.7,4.6,79,0.00,CLR,,0.00,WeatherDisplay:10.37,2013-01-08 05:33:00,
2013-01-07 23:38:00,28.5,23.1,30.15,SSE,153,2.6,2.6,80,0.00,CLR,,0.00,WeatherDisplay:10.37,2013-01-08 05:38:00,
2013-01-07 23:43:00,28.5,23.1,30.16,SSE,153,0.0,1.1,80,0.00,CLR,,0.00,WeatherDisplay:10.37,2013-01-08 05:43:00,
2013-01-07 23:48:00,28.5,23.1,30.15,SSW,192,2.8,6.0,80,0.00,CLR,,0.00,WeatherDisplay:10.37,2013-01-08 05:48:00,
2013-01-07 23:53:00,28.7,23.3,30.16,SSE,166,2.1,4.6,80,0.00,CLR,,0.00,WeatherDisplay:10.37,2013-01-08 05:53:00,
2013-01-07 23:58:00,28.7,23.3,30.16,ESE,119,1.3,3.0,80,0.00,CLR,,0.00,WeatherDisplay:10.37,2013-01-08 05:58:00,